Time,TemperatureF,DewpointF,PressureIn,WindDirection,WindDirectionDegrees,WindSpeedMPH,WindSpeedGustMPH,Humidity,HourlyPrecipIn,Conditions,Clouds,dailyrainin,SoftwareType,DateUTC
2013-04-26 00:15:00,52.3,21.7,29.84,ESE,107,2.0,2.0,30,0.00,,,0.00,Wunderground v.1.15,2013-04-26 06:15:00,
2013-04-26 00:25:00,51.0,21.4,29.84,ESE,108,1.0,1.0,31,0.00,,,0.00,Wunderground v.1.15,2013-04-26 06:25:00,
2013-04-26 00:35:00,50.7,21.1,29.85,ESE,108,1.0,1.0,31,0.00,,,0.00,Wunderground v.1.15,2013-04-26 06:35:00,
2013-04-26 00:45:00,50.1,20.6,29.85,ESE,108,0.0,1.0,31,0.00,,,0.00,Wunderground v.1.15,2013-04-26 06:45:00,
2013-04-26 00:54:00,50.0,20.5,29.85,ESE,108,1.0,1.0,31,0.00,,,0.00,Wunderground v.1.15,2013-04-26 06:54:00,
2013-04-26 01:00:00,49.9,20.4,29.85,ESE,108,0.0,0.0,31,0.00,,,0.00,Wunderground v.1.15,2013-04-26 07:00:00,
2013-04-26 01:05:00,49.2,20.6,29.85,ESE,104,0.0,2.0,32,0.00,,,0.00,Wunderground v.1.15,2013-04-26 07:05:00,
2013-04-26 01:14:00,48.6,20.0,29.86,ESE,105,1.0,1.0,32,0.00,,,0.00,Wunderground v.1.15,2013-04-26 07:14:00,
2013-04-26 01:20:00,47.9,20.1,29.86,ESE,105,0.0,1.0,33,0.00,,,0.00,Wunderground v.1.15,2013-04-26 07:20:00,
2013-04-26 01:30:00,47.0,20.7,29.86,ESE,105,1.0,2.0,35,0.00,,,0.00,Wunderground v.1.15,2013-04-26 07:30:00,
2013-04-26 01:39:00,46.5,20.3,29.86,ESE,103,1.0,1.0,35,0.00,,,0.00,Wunderground v.1.15,2013-04-26 07:39:00,
2013-04-26 01:45:00,46.5,20.3,29.86,ESE,103,1.0,1.0,35,0.00,,,0.00,Wunderground v.1.15,2013-04-26 07:45:00,
2013-04-26 01:55:00,46.3,20.8,29.87,ESE,103,0.0,0.0,36,0.00,,,0.00,Wunderground v.1.15,2013-04-26 07:55:00,
2013-04-26 02:05:00,45.9,20.4,29.87,ESE,103,1.0,2.0,36,0.00,,,0.00,Wunderground v.1.15,2013-04-26 08:05:00,
2013-04-26 02:10:00,46.3,20.8,29.87,ESE,103,1.0,1.0,36,0.00,,,0.00,Wunderground v.1.15,2013-04-26 08:10:00,
2013-04-26 02:20:00,46.7,20.5,29.87,ESE,103,0.0,0.0,35,0.00,,,0.00,Wunderground v.1.15,2013-04-26 08:20:00,
2013-04-26 02:30:00,46.7,19.8,29.88,ESE,103,1.0,1.0,34,0.00,,,0.00,Wunderground v.1.15,2013-04-26 08:30:00,
2013-04-26 02:40:00,48.4,19.1,29.87,South,182,2.0,2.0,31,0.00,,,0.00,Wunderground v.1.15,2013-04-26 08:40:00,
2013-04-26 02:55:00,51.7,18.7,29.88,ESE,117,2.0,2.0,27,0.00,,,0.00,Wunderground v.1.15,2013-04-26 08:55:00,
2013-04-26 03:05:00,52.1,18.2,29.87,South,187,2.0,2.0,26,0.00,,,0.00,Wunderground v.1.15,2013-04-26 09:05:00,
2013-04-26 03:15:00,53.2,18.2,29.88,South,187,2.0,2.0,25,0.00,,,0.00,Wunderground v.1.15,2013-04-26 09:15:00,
2013-04-26 03:25:00,53.3,17.4,29.88,South,186,1.0,5.0,24,0.00,,,0.00,Wunderground v.1.15,2013-04-26 09:25:00,
2013-04-26 03:30:00,53.8,16.8,29.88,SSE,166,2.0,2.0,23,0.00,,,0.00,Wunderground v.1.15,2013-04-26 09:30:00,
2013-04-26 03:40:00,53.8,17.8,29.88,South,172,1.0,1.0,24,0.00,,,0.00,Wunderground v.1.15,2013-04-26 09:40:00,
2013-04-26 03:49:00,53.0,17.1,29.89,South,173,1.0,1.0,24,0.00,,,0.00,Wunderground v.1.15,2013-04-26 09:49:00,
2013-04-26 03:55:00,52.1,19.9,29.89,WNW,287,0.0,1.0,28,0.00,,,0.00,Wunderground v.1.15,2013-04-26 09:55:00,
2013-04-26 04:05:00,49.1,20.5,29.89,WNW,286,0.0,0.0,32,0.00,,,0.00,Wunderground v.1.15,2013-04-26 10:05:00,
2013-04-26 04:20:00,46.5,20.9,29.90,North,355,0.0,2.0,36,0.00,,,0.00,Wunderground v.1.15,2013-04-26 10:20:00,
2013-04-26 04:30:00,44.9,19.5,29.90,North,355,0.0,0.0,36,0.00,,,0.00,Wunderground v.1.15,2013-04-26 10:30:00,
2013-04-26 04:40:00,44.3,19.0,29.90,North,355,0.0,1.0,36,0.00,,,0.00,Wunderground v.1.15,2013-04-26 10:40:00,
2013-04-26 04:50:00,44.2,18.9,29.91,North,355,1.0,2.0,36,0.00,,,0.00,Wunderground v.1.15,2013-04-26 10:50:00,
2013-04-26 04:59:00,43.7,20.3,29.91,North,355,0.0,0.0,39,0.00,,,0.00,Wunderground v.1.15,2013-04-26 10:59:00,
2013-04-26 05:05:00,43.2,20.5,29.91,North,355,0.0,2.0,40,0.00,,,0.00,Wunderground v.1.15,2013-04-26 11:05:00,
2013-04-26 05:15:00,42.9,20.8,29.92,SW,222,0.0,0.0,41,0.00,,,0.00,Wunderground v.1.15,2013-04-26 11:15:00,
2013-04-26 05:25:00,43.0,19.1,29.91,SW,218,1.0,1.0,38,0.00,,,0.00,Wunderground v.1.15,2013-04-26 11:25:00,
2013-04-26 05:35:00,43.3,18.1,29.92,SW,219,1.0,1.0,36,0.00,,,0.00,Wunderground v.1.15,2013-04-26 11:35:00,
2013-04-26 05:45:00,42.7,18.2,29.92,SW,219,0.0,0.0,37,0.00,,,0.00,Wunderground v.1.15,2013-04-26 11:45:00,
2013-04-26 05:55:00,42.0,18.8,29.92,SW,219,0.0,0.0,39,0.00,,,0.00,Wunderground v.1.15,2013-04-26 11:55:00,
2013-04-26 06:10:00,41.4,18.9,29.93,NNW,344,0.0,0.0,40,0.00,,,0.00,Wunderground v.1.15,2013-04-26 12:10:00,
2013-04-26 06:20:00,41.3,19.3,29.94,North,350,1.0,2.0,41,0.00,,,0.00,Wunderground v.1.15,2013-04-26 12:20:00,
2013-04-26 06:30:00,41.0,19.1,29.95,North,350,0.0,0.0,41,0.00,,,0.00,Wunderground v.1.15,2013-04-26 12:30:00,
2013-04-26 06:40:00,40.2,19.5,29.95,North,350,0.0,0.0,43,0.00,,,0.00,Wunderground v.1.15,2013-04-26 12:40:00,
2013-04-26 06:50:00,39.9,19.7,29.96,North,350,0.0,0.0,44,0.00,,,0.00,Wunderground v.1.15,2013-04-26 12:50:00,
2013-04-26 07:00:00,40.7,20.5,29.96,North,350,0.0,0.0,44,0.00,,,0.00,Wunderground v.1.15,2013-04-26 13:00:00,
2013-04-26 07:05:00,41.6,21.8,29.97,North,350,1.0,2.0,45,0.00,,,0.00,Wunderground v.1.15,2013-04-26 13:05:00,
2013-04-26 07:10:00,42.2,21.3,29.97,North,350,1.0,1.0,43,0.00,,,0.00,Wunderground v.1.15,2013-04-26 13:10:00,
2013-04-26 07:25:00,44.6,23.5,29.98,North,350,0.0,0.0,43,0.00,,,0.00,Wunderground v.1.15,2013-04-26 13:25:00,
2013-04-26 07:35:00,45.9,23.5,29.99,WNW,284,0.0,1.0,41,0.00,,,0.00,Wunderground v.1.15,2013-04-26 13:35:00,
2013-04-26 07:45:00,47.8,22.1,29.99,ESE,109,3.0,4.0,36,0.00,,,0.00,Wunderground v.1.15,2013-04-26 13:45:00,
2013-04-26 08:00:00,50.5,23.1,30.00,ESE,117,2.0,2.0,34,0.00,,,0.00,Wunderground v.1.15,2013-04-26 14:00:00,
2013-04-26 08:05:00,51.4,23.2,30.00,ESE,117,1.0,2.0,33,0.00,,,0.00,Wunderground v.1.15,2013-04-26 14:05:00,
2013-04-26 08:14:00,52.5,24.9,30.00,East,98,3.0,3.0,34,0.00,,,0.00,Wunderground v.1.15,2013-04-26 14:14:00,
2013-04-26 08:25:00,53.7,25.2,30.00,ESE,114,3.0,3.0,33,0.00,,,0.00,Wunderground v.1.15,2013-04-26 14:25:00,
2013-04-26 08:39:00,54.3,24.3,30.00,ESE,112,5.0,5.0,31,0.00,,,0.00,Wunderground v.1.15,2013-04-26 14:39:00,
2013-04-26 08:45:00,54.6,25.3,30.00,SE,135,4.0,5.0,32,0.00,,,0.00,Wunderground v.1.15,2013-04-26 14:45:00,
2013-04-26 08:55:00,56.0,24.2,30.00,ESE,109,4.0,5.0,29,0.00,,,0.00,Wunderground v.1.15,2013-04-26 14:55:00,
2013-04-26 09:05:00,57.6,25.5,30.00,ESE,104,3.0,3.0,29,0.00,,,0.00,Wunderground v.1.15,2013-04-26 15:05:00,
2013-04-26 09:14:00,58.4,25.4,30.00,ESE,113,3.0,3.0,28,0.00,,,0.00,Wunderground v.1.15,2013-04-26 15:14:00,
2013-04-26 09:19:00,59.0,25.0,30.00,East,93,3.0,3.0,27,0.00,,,0.00,Wunderground v.1.15,2013-04-26 15:19:00,
2013-04-26 09:25:00,59.5,24.5,30.00,East,92,3.0,3.0,26,0.00,,,0.00,Wunderground v.1.15,2013-04-26 15:25:00,
2013-04-26 09:35:00,60.4,24.4,30.00,East,86,3.0,5.0,25,0.00,,,0.00,Wunderground v.1.15,2013-04-26 15:35:00,
2013-04-26 09:44:00,60.6,23.6,30.00,East,91,3.0,3.0,24,0.00,,,0.00,Wunderground v.1.15,2013-04-26 15:44:00,
2013-04-26 10:05:00,62.1,23.8,30.01,ESE,105,3.0,3.0,23,0.00,,,0.00,Wunderground v.1.15,2013-04-26 16:05:00,
2013-04-26 10:10:00,62.4,24.1,30.01,East,99,3.0,4.0,23,0.00,,,0.00,Wunderground v.1.15,2013-04-26 16:10:00,
2013-04-26 10:20:00,63.4,21.6,30.01,ENE,76,3.0,4.0,20,0.00,,,0.00,Wunderground v.1.15,2013-04-26 16:20:00,
2013-04-26 10:30:00,64.2,22.2,30.01,ESE,113,2.0,3.0,20,0.00,,,0.00,Wunderground v.1.15,2013-04-26 16:30:00,
2013-04-26 10:40:00,65.0,21.7,30.01,SSW,212,1.0,2.0,19,0.00,,,0.00,Wunderground v.1.15,2013-04-26 16:40:00,
2013-04-26 10:49:00,65.4,20.7,30.01,East,92,2.0,2.0,18,0.00,,,0.00,Wunderground v.1.15,2013-04-26 16:49:00,
2013-04-26 10:55:00,65.4,22.0,30.01,ESE,113,2.0,2.0,19,0.00,,,0.00,Wunderground v.1.15,2013-04-26 16:55:00,
2013-04-26 11:05:00,65.2,21.9,30.00,East,80,3.0,5.0,19,0.00,,,0.00,Wunderground v.1.15,2013-04-26 17:05:00,
2013-04-26 11:15:00,66.6,21.7,30.01,East,98,2.0,3.0,18,0.00,,,0.00,Wunderground v.1.15,2013-04-26 17:15:00,
2013-04-26 11:25:00,67.1,23.4,30.01,ESE,121,2.0,5.0,19,0.00,,,0.00,Wunderground v.1.15,2013-04-26 17:25:00,
2013-04-26 11:30:00,67.0,22.1,30.00,East,83,3.0,5.0,18,0.00,,,0.00,Wunderground v.1.15,2013-04-26 17:30:00,
2013-04-26 11:35:00,66.6,20.4,30.00,ENE,63,3.0,5.0,17,0.00,,,0.00,Wunderground v.1.15,2013-04-26 17:35:00,
2013-04-26 11:49:00,67.9,22.8,30.00,East,88,2.0,2.0,18,0.00,,,0.00,Wunderground v.1.15,2013-04-26 17:49:00,
2013-04-26 12:00:00,68.0,22.9,30.00,ESE,103,3.0,3.0,18,0.00,,,0.00,Wunderground v.1.15,2013-04-26 18:00:00,
2013-04-26 12:05:00,68.4,21.8,30.00,East,94,3.0,4.0,17,0.00,,,0.00,Wunderground v.1.15,2013-04-26 18:05:00,
2013-04-26 12:14:00,68.5,20.5,29.99,NNE,30,2.0,3.0,16,0.00,,,0.00,Wunderground v.1.15,2013-04-26 18:14:00,
2013-04-26 12:20:00,69.1,22.4,29.99,NW,326,2.0,2.0,17,0.00,,,0.00,Wunderground v.1.15,2013-04-26 18:20:00,
2013-04-26 12:30:00,69.8,23.0,29.99,NW,323,3.0,3.0,17,0.00,,,0.00,Wunderground v.1.15,2013-04-26 18:30:00,
2013-04-26 12:50:00,70.2,21.9,29.98,NNW,333,2.0,2.0,16,0.00,,,0.00,Wunderground v.1.15,2013-04-26 18:50:00,
2013-04-26 12:59:00,70.9,22.4,29.98,West,265,1.0,1.0,16,0.00,,,0.00,Wunderground v.1.15,2013-04-26 18:59:00,
2013-04-26 13:05:00,70.9,22.4,29.97,NNW,340,1.0,3.0,16,0.00,,,0.00,Wunderground v.1.15,2013-04-26 19:05:00,
2013-04-26 13:15:00,71.7,23.1,29.97,NNE,17,3.0,7.0,16,0.00,,,0.00,Wunderground v.1.15,2013-04-26 19:15:00,
2013-04-26 13:24:00,71.1,22.6,29.97,NW,319,5.0,5.0,16,0.00,,,0.00,Wunderground v.1.15,2013-04-26 19:24:00,
2013-04-26 13:35:00,70.3,23.4,29.97,SW,236,4.0,4.0,17,0.00,,,0.00,Wunderground v.1.15,2013-04-26 19:35:00,
2013-04-26 13:45:00,71.1,22.6,29.96,WNW,294,1.0,2.0,16,0.00,,,0.00,Wunderground v.1.15,2013-04-26 19:45:00,
2013-04-26 14:00:00,72.3,23.6,29.96,North,5,4.0,4.0,16,0.00,,,0.00,Wunderground v.1.15,2013-04-26 20:00:00,
2013-04-26 14:05:00,72.2,21.9,29.96,WSW,240,3.0,4.0,15,0.00,,,0.00,Wunderground v.1.15,2013-04-26 20:05:00,
2013-04-26 14:14:00,72.7,23.9,29.96,SSW,202,4.0,4.0,16,0.00,,,0.00,Wunderground v.1.15,2013-04-26 20:14:00,
2013-04-26 14:20:00,72.2,21.9,29.96,NNW,334,3.0,3.0,15,0.00,,,0.00,Wunderground v.1.15,2013-04-26 20:20:00,
2013-04-26 14:30:00,72.4,22.1,29.96,NW,325,3.0,3.0,15,0.00,,,0.00,Wunderground v.1.15,2013-04-26 20:30:00,
2013-04-26 14:35:00,73.1,19.3,29.96,SSW,197,3.0,3.0,13,0.00,,,0.00,Wunderground v.1.15,2013-04-26 20:35:00,
2013-04-26 14:50:00,73.5,21.3,29.95,NNW,342,4.0,9.0,14,0.00,,,0.00,Wunderground v.1.15,2013-04-26 20:50:00,
2013-04-26 14:59:00,73.9,24.8,29.95,West,262,5.0,6.0,16,0.00,,,0.00,Wunderground v.1.15,2013-04-26 20:59:00,
2013-04-26 15:10:00,73.7,21.5,29.95,West,265,3.0,3.0,14,0.00,,,0.00,Wunderground v.1.15,2013-04-26 21:10:00,
2013-04-26 15:19:00,74.0,23.4,29.95,NNE,17,3.0,5.0,15,0.00,,,0.00,Wunderground v.1.15,2013-04-26 21:19:00,
2013-04-26 15:30:00,74.3,23.6,29.95,NNW,335,5.0,5.0,15,0.00,,,0.00,Wunderground v.1.15,2013-04-26 21:30:00,
2013-04-26 15:39:00,74.0,23.4,29.95,NW,317,3.0,6.0,15,0.00,,,0.00,Wunderground v.1.15,2013-04-26 21:39:00,
2013-04-26 15:55:00,73.8,23.2,29.95,NW,311,3.0,3.0,15,0.00,,,0.00,Wunderground v.1.15,2013-04-26 21:55:00,
2013-04-26 16:05:00,74.1,21.8,29.94,SW,234,2.0,2.0,14,0.00,,,0.00,Wunderground v.1.15,2013-04-26 22:05:00,
2013-04-26 16:15:00,74.4,23.7,29.94,NNW,336,2.0,4.0,15,0.00,,,0.00,Wunderground v.1.15,2013-04-26 22:15:00,
2013-04-26 16:24:00,74.1,23.5,29.93,West,275,5.0,5.0,15,0.00,,,0.00,Wunderground v.1.15,2013-04-26 22:24:00,
2013-04-26 16:35:00,74.3,23.6,29.93,NNE,24,2.0,5.0,15,0.00,,,0.00,Wunderground v.1.15,2013-04-26 22:35:00,
2013-04-26 16:45:00,74.4,23.7,29.93,North,5,3.0,3.0,15,0.00,,,0.00,Wunderground v.1.15,2013-04-26 22:45:00,
2013-04-26 16:55:00,74.5,22.1,29.93,NNW,331,2.0,6.0,14,0.00,,,0.00,Wunderground v.1.15,2013-04-26 22:55:00,
2013-04-26 17:05:00,74.1,21.8,29.93,NNE,27,4.0,6.0,14,0.00,,,0.00,Wunderground v.1.15,2013-04-26 23:05:00,
2013-04-26 17:14:00,74.0,23.4,29.93,NNW,329,3.0,4.0,15,0.00,,,0.00,Wunderground v.1.15,2013-04-26 23:14:00,
2013-04-26 17:20:00,74.7,23.9,29.92,NW,324,1.0,6.0,15,0.00,,,0.00,Wunderground v.1.15,2013-04-26 23:20:00,
2013-04-26 17:29:00,73.7,21.5,29.92,SW,225,2.0,2.0,14,0.00,,,0.00,Wunderground v.1.15,2013-04-26 23:29:00,
2013-04-26 17:40:00,73.4,24.4,29.92,NE,34,2.0,2.0,16,0.00,,,0.00,Wunderground v.1.15,2013-04-26 23:40:00,
2013-04-26 17:50:00,73.3,22.8,29.92,West,271,2.0,2.0,15,0.00,,,0.00,Wunderground v.1.15,2013-04-26 23:50:00,
2013-04-26 18:10:00,73.6,21.4,29.93,WNW,292,3.0,7.0,14,0.00,,,0.00,Wunderground v.1.15,2013-04-27 00:10:00,
2013-04-26 18:20:00,73.0,20.9,29.93,SW,229,3.0,3.0,14,0.00,,,0.00,Wunderground v.1.15,2013-04-27 00:20:00,
2013-04-26 18:30:00,72.6,22.3,29.93,SW,216,2.0,3.0,15,0.00,,,0.00,Wunderground v.1.15,2013-04-27 00:30:00,
2013-04-26 18:39:00,72.3,22.0,29.92,NW,306,1.0,1.0,15,0.00,,,0.00,Wunderground v.1.15,2013-04-27 00:39:00,
2013-04-26 18:50:00,71.9,21.7,29.93,WNW,300,2.0,3.0,15,0.00,,,0.00,Wunderground v.1.15,2013-04-27 00:50:00,
2013-04-26 19:00:00,71.3,22.7,29.93,West,281,1.0,1.0,16,0.00,,,0.00,Wunderground v.1.15,2013-04-27 01:00:00,
2013-04-26 19:05:00,70.7,22.3,29.93,West,269,1.0,1.0,16,0.00,,,0.00,Wunderground v.1.15,2013-04-27 01:05:00,
2013-04-26 19:15:00,69.1,21.0,29.93,SW,221,1.0,2.0,16,0.00,,,0.00,Wunderground v.1.15,2013-04-27 01:15:00,
2013-04-26 19:25:00,68.4,20.4,29.93,WSW,250,1.0,2.0,16,0.00,,,0.00,Wunderground v.1.15,2013-04-27 01:25:00,
2013-04-26 19:35:00,67.8,19.9,29.93,SSW,195,1.0,1.0,16,0.00,,,0.00,Wunderground v.1.15,2013-04-27 01:35:00,
2013-04-26 19:45:00,67.2,20.9,29.94,SSW,195,0.0,1.0,17,0.00,,,0.00,Wunderground v.1.15,2013-04-27 01:45:00,
2013-04-26 20:00:00,66.3,20.1,29.94,SSW,213,2.0,5.0,17,0.00,,,0.00,Wunderground v.1.15,2013-04-27 02:00:00,
2013-04-26 20:05:00,66.7,20.5,29.94,SW,227,3.0,5.0,17,0.00,,,0.00,Wunderground v.1.15,2013-04-27 02:05:00,
2013-04-26 20:15:00,66.7,20.5,29.95,WSW,240,3.0,4.0,17,0.00,,,0.00,Wunderground v.1.15,2013-04-27 02:15:00,
2013-04-26 20:20:00,66.7,20.5,29.95,WSW,257,3.0,3.0,17,0.00,,,0.00,Wunderground v.1.15,2013-04-27 02:20:00,
2013-04-26 20:35:00,66.3,18.7,29.96,West,263,2.0,2.0,16,0.00,,,0.00,Wunderground v.1.15,2013-04-27 02:35:00,
2013-04-26 20:39:00,66.1,18.5,29.96,NNW,327,2.0,2.0,16,0.00,,,0.00,Wunderground v.1.15,2013-04-27 02:39:00,
2013-04-26 20:55:00,65.5,18.1,29.97,WSW,249,2.0,2.0,16,0.00,,,0.00,Wunderground v.1.15,2013-04-27 02:55:00,
2013-04-26 21:05:00,65.1,17.7,29.98,SSW,209,2.0,7.0,16,0.00,,,0.00,Wunderground v.1.15,2013-04-27 03:05:00,
2013-04-26 21:15:00,65.6,16.6,29.98,WSW,249,3.0,3.0,15,0.00,,,0.00,Wunderground v.1.15,2013-04-27 03:15:00,
2013-04-26 21:25:00,65.3,16.4,29.99,SSW,208,2.0,4.0,15,0.00,,,0.00,Wunderground v.1.15,2013-04-27 03:25:00,
2013-04-26 21:34:00,64.9,17.6,29.99,SW,228,2.0,2.0,16,0.00,,,0.00,Wunderground v.1.15,2013-04-27 03:34:00,
2013-04-26 21:40:00,64.4,17.2,29.99,SW,229,2.0,2.0,16,0.00,,,0.00,Wunderground v.1.15,2013-04-27 03:40:00,
2013-04-26 21:50:00,63.6,16.5,29.99,SW,229,2.0,2.0,16,0.00,,,0.00,Wunderground v.1.15,2013-04-27 03:50:00,
2013-04-26 22:00:00,62.9,17.4,30.00,SW,229,2.0,3.0,17,0.00,,,0.00,Wunderground v.1.15,2013-04-27 04:00:00,
2013-04-26 22:05:00,62.8,17.3,30.00,SW,229,2.0,3.0,17,0.00,,,0.00,Wunderground v.1.15,2013-04-27 04:05:00,
2013-04-26 22:10:00,62.5,17.0,30.00,SW,229,2.0,3.0,17,0.00,,,0.00,Wunderground v.1.15,2013-04-27 04:10:00,
2013-04-26 22:14:00,62.1,16.7,30.00,SW,229,1.0,3.0,17,0.00,,,0.00,Wunderground v.1.15,2013-04-27 04:14:00,
2013-04-26 22:20:00,61.9,17.9,30.00,SW,229,1.0,1.0,18,0.00,,,0.00,Wunderground v.1.15,2013-04-27 04:20:00,
2013-04-26 22:25:00,61.4,17.5,30.00,SW,229,1.0,1.0,18,0.00,,,0.00,Wunderground v.1.15,2013-04-27 04:25:00,
2013-04-26 22:34:00,61.2,17.3,30.00,SW,229,1.0,2.0,18,0.00,,,0.00,Wunderground v.1.15,2013-04-27 04:34:00,
2013-04-26 22:45:00,61.2,17.3,30.00,SW,229,2.0,2.0,18,0.00,,,0.00,Wunderground v.1.15,2013-04-27 04:45:00,
2013-04-26 22:54:00,61.1,17.2,30.00,SW,229,2.0,4.0,18,0.00,,,0.00,Wunderground v.1.15,2013-04-27 04:54:00,
2013-04-26 23:05:00,61.1,17.2,30.00,SW,235,3.0,4.0,18,0.00,,,0.00,Wunderground v.1.15,2013-04-27 05:05:00,
2013-04-26 23:10:00,60.9,17.0,30.00,SW,228,2.0,2.0,18,0.00,,,0.00,Wunderground v.1.15,2013-04-27 05:10:00,
2013-04-26 23:15:00,60.6,16.8,30.00,SW,236,2.0,3.0,18,0.00,,,0.00,Wunderground v.1.15,2013-04-27 05:15:00,
2013-04-26 23:24:00,60.4,17.9,30.00,SW,227,4.0,4.0,19,0.00,,,0.00,Wunderground v.1.15,2013-04-27 05:24:00,
2013-04-26 23:30:00,60.2,17.7,30.00,SW,225,3.0,3.0,19,0.00,,,0.00,Wunderground v.1.15,2013-04-27 05:30:00,
2013-04-26 23:40:00,59.0,21.2,30.01,West,265,1.0,1.0,23,0.00,,,0.00,Wunderground v.1.15,2013-04-27 05:40:00,
2013-04-26 23:49:00,55.8,21.4,30.01,West,265,0.0,0.0,26,0.00,,,0.00,Wunderground v.1.15,2013-04-27 05:49:00,
2013-04-26 23:55:00,54.3,21.0,30.01,West,265,0.0,0.0,27,0.00,,,0.00,Wunderground v.1.15,2013-04-27 05:55:00,